FW3667 Weather Reports


time (UTC)temp
F
wind
direction
speed
knots
gust
knots
rain 1hr
in
rain 24hr
in
rain mn
in
humidity
%
barometer
mb
20260505100101 57 207 0.0 0.0 0.00 0.00 0.00 88 1001.2
20260505094546 57 206 0.0 0.0 0.00 0.00 0.00 88 1001.4
20260505093048 57 206 0.0 0.0 0.00 0.00 0.00 88 1001.3
20260505091514 57 207 0.0 0.0 0.00 0.00 0.00 88 1000.8
20260505090040 57 206 0.0 0.0 0.00 0.00 0.00 87 1000.8
20260505084600 57 206 0.0 0.0 0.00 0.00 0.00 87 1000.8
20260505083051 58 206 0.0 0.0 0.00 0.00 0.00 85 1000.8
20260505081603 58 206 0.0 0.0 0.00 0.00 0.00 85 1000.7
20260505080149 59 206 0.0 0.0 0.00 0.00 0.00 84 1000.9
20260505074526 59 207 0.0 0.9 0.00 0.00 0.00 83 1001.0
20260505073035 59 206 0.0 0.9 0.00 0.00 0.00 82 1001.0
20260505071556 60 207 0.0 0.9 0.00 0.00 0.00 82 1001.0
20260505070058 60 208 0.0 2.6 0.00 0.00 0.00 81 1001.0
20260505064551 60 239 0.0 1.7 0.00 0.00 0.00 80 1001.0
20260505063055 60 217 0.0 1.7 0.00 0.00 0.00 80 1001.2
20260505061550 60 202 0.0 2.6 0.00 0.00 0.00 82 1001.3
20260505060050 59 205 0.0 1.7 0.00 0.00 0.00 83 1001.8
20260505054520 59 275 0.0 0.9 0.00 0.00 0.00 84 1002.1
20260505053033 58 276 0.0 1.7 0.00 0.00 0.00 83 1002.1
20260505051534 58 166 0.0 0.9 0.00 0.00 0.00 84 1002.3
20260505041520 60 93 0.0 0.0 0.00 0.00 0.00 80 1002.8
20260505040013 61 94 0.0 0.9 0.00 0.00 0.00 78 1002.9
20260505034512 62 94 0.0 0.9 0.00 0.00 0.00 76 1002.9
20260505033011 62 93 0.0 0.9 0.00 0.00 0.00 75 1003.2
20260505031510 63 161 0.0 3.5 0.00 0.00 0.00 74 1003.0
20260505030008 63 116 0.0 1.7 0.00 0.00 0.00 73 1002.9
20260505024508 63 115 0.0 1.7 0.00 0.00 0.00 72 1002.7
20260505023012 64 139 0.0 2.6 0.00 0.00 0.00 71 1002.5
20260505021505 64 51 0.0 0.9 0.00 0.00 0.00 70 1002.3
20260505020004 65 51 0.0 0.9 0.00 0.00 0.00 69 1001.9
20260505014504 66 51 0.0 1.7 0.00 0.00 0.00 67 1001.5
20260505013003 67 134 0.0 0.9 0.00 0.00 0.00 65 1001.5
20260505011500 69 134 0.0 4.3 0.00 0.00 0.00 62 1001.4
20260505010118 70 256 0.0 2.6 0.00 0.00 0.00 60 1001.4
20260505004600 71 238 1.7 6.1 0.00 0.00 0.00 57 1001.0
20260505003100 72 152 1.7 4.3 0.00 0.00 0.00 56 1001.1
20260505001529 73 341 0.0 4.3 0.00 0.00 0.00 55 1001.1
20260505000040 74 225 0.9 5.2 0.00 0.00 0.00 54 1000.6
20260504234557 74 198 0.9 5.2 0.00 0.00 0.00 53 1000.7
20260504233057 75 221 0.9 7.0 0.00 0.00 0.00 52 1000.9
20260504231558 76 196 1.7 5.2 0.00 0.00 0.00 50 1001.1
20260504230053 76 202 0.9 8.7 0.00 0.00 0.00 50 1001.1
20260504224552 78 202 1.7 4.3 0.00 0.00 0.00 48 1001.2
20260504223100 79 222 0.9 7.0 0.00 0.00 0.00 46 1001.2
20260504221603 79 207 1.7 5.2 0.00 0.00 0.00 47 1001.2
20260504220047 79 75 0.9 7.8 0.00 0.00 0.00 47 1001.4
20260504214549 80 89 0.9 7.8 0.00 0.00 0.00 46 1001.4
20260504213059 79 202 1.7 5.2 0.00 0.00 0.00 47 1001.5
20260504211548 80 91 0.9 5.2 0.00 0.00 0.00 45 1001.5
20260504210040 80 9 1.7 6.1 0.00 0.00 0.00 47 1001.7
20260504204640 80 110 1.7 7.0 0.00 0.00 0.00 46 1001.9
20260504203047 81 237 2.6 6.1 0.00 0.00 0.00 46 1002.1
20260504201534 81 207 1.7 4.3 0.00 0.00 0.00 45 1002.3
20260504200031 80 32 0.9 5.2 0.00 0.00 0.00 45 1002.5
20260504194538 80 114 1.7 9.6 0.00 0.00 0.00 47 1002.6
20260504193027 80 204 1.7 7.8 0.00 0.00 0.00 46 1002.8
20260504191535 80 116 1.7 6.1 0.00 0.00 0.00 45 1003.0
20260504190020 80 267 1.7 6.1 0.00 0.00 0.00 44 1003.2
20260504184520 79 206 1.7 9.6 0.00 0.00 0.00 46 1003.2
20260504183017 79 232 1.7 7.0 0.00 0.00 0.00 45 1003.3
20260504181518 79 204 0.9 9.6 0.00 0.00 0.00 44 1003.3
20260504180016 78 136 1.7 6.1 0.00 0.00 0.00 47 1003.4
20260504174510 78 149 3.5 9.6 0.00 0.00 0.00 46 1003.5
20260504173010 78 57 0.9 7.0 0.00 0.00 0.00 52 1003.7
20260504171505 77 335 1.7 9.6 0.00 0.00 0.00 48 1004.0